UAL1717 KLAX-KSAN

Flight info

Callsign UAL1717
Flight time 0h 29m
Altitude 13000
Route LAXX1 MZB
Aircraft B722/M-SDFHWY/C

Departure

Time 2026-05-07 04:58
Airport Los Angeles International Airport (KLAX)

Arrival

Time 2026-05-07 05:27
Airport San Diego International Airport (KSAN)
Time Latitude Longitude Altitude Speed Heading
2026-05-07 04:09 33.94153 -118.39885 50 ft 0 kts 284°
2026-05-07 04:41 33.94151 -118.39872 96 ft 2 kts 284°
2026-05-07 04:41 33.94148 -118.39853 97 ft 2 kts 264°
2026-05-07 04:41 33.94158 -118.39838 98 ft 2 kts 204°
2026-05-07 04:41 33.94173 -118.39837 96 ft 1 kts 174°
2026-05-07 04:42 33.94174 -118.39837 96 ft 0 kts 174°
2026-05-07 04:48 33.94160 -118.39835 97 ft 5 kts 174°
2026-05-07 04:49 33.94113 -118.39830 97 ft 8 kts 175°
2026-05-07 04:49 33.94053 -118.39825 97 ft 10 kts 177°
2026-05-07 04:49 33.93983 -118.39817 98 ft 11 kts 172°
2026-05-07 04:49 33.93919 -118.39784 99 ft 10 kts 125°
2026-05-07 04:50 33.93909 -118.39693 98 ft 12 kts 83°
2026-05-07 04:50 33.93920 -118.39579 98 ft 15 kts 83°
2026-05-07 04:50 33.93935 -118.39439 99 ft 18 kts 83°
2026-05-07 04:50 33.93952 -118.39274 98 ft 21 kts 83°
2026-05-07 04:51 33.93970 -118.39090 99 ft 23 kts 83°
2026-05-07 04:51 33.93990 -118.38891 97 ft 25 kts 83°
2026-05-07 04:51 33.94005 -118.38747 98 ft 15 kts 82°
2026-05-07 04:51 33.94019 -118.38616 99 ft 17 kts 83°
2026-05-07 04:52 33.94035 -118.38469 100 ft 19 kts 83°
2026-05-07 04:52 33.94050 -118.38326 99 ft 12 kts 83°
2026-05-07 04:52 33.94051 -118.38309 100 ft 1 kts 83°
2026-05-07 04:52 33.94058 -118.38244 98 ft 12 kts 83°
2026-05-07 04:53 33.94069 -118.38135 97 ft 8 kts 83°
2026-05-07 04:53 33.94070 -118.38129 98 ft 0 kts 83°
2026-05-07 04:54 33.94071 -118.38119 98 ft 3 kts 83°
2026-05-07 04:54 33.94076 -118.38069 96 ft 9 kts 83°
2026-05-07 04:54 33.94078 -118.38048 96 ft 0 kts 90°
2026-05-07 04:54 33.94077 -118.38043 96 ft 3 kts 95°
2026-05-07 04:55 33.94054 -118.38006 97 ft 9 kts 147°
2026-05-07 04:55 33.93988 -118.38012 96 ft 10 kts 239°
2026-05-07 04:55 33.93980 -118.38058 97 ft 0 kts 263°
2026-05-07 04:57 33.93971 -118.38151 98 ft 36 kts 263°
2026-05-07 04:57 33.93912 -118.38726 99 ft 102 kts 263°
2026-05-07 04:58 33.93799 -118.39794 149 ft 149 kts 261°
2026-05-07 04:58 33.93666 -118.41050 789 ft 150 kts 262°
2026-05-07 04:58 33.93530 -118.42337 1334 ft 166 kts 261°
2026-05-07 04:58 33.93374 -118.43786 1886 ft 179 kts 261°
2026-05-07 04:59 33.93146 -118.45265 2605 ft 181 kts 253°
2026-05-07 04:59 33.92536 -118.46622 3238 ft 193 kts 233°
2026-05-07 04:59 33.91653 -118.47901 3788 ft 205 kts 233°
2026-05-07 04:59 33.90710 -118.49273 4430 ft 220 kts 229°
2026-05-07 05:00 33.89523 -118.50404 5528 ft 216 kts 210°
2026-05-07 05:00 33.88067 -118.51116 6232 ft 237 kts 202°
2026-05-07 05:00 33.86478 -118.51821 7074 ft 244 kts 200°
2026-05-07 05:00 33.84906 -118.52469 8241 ft 237 kts 199°
2026-05-07 05:01 33.83323 -118.53127 9047 ft 246 kts 201°
2026-05-07 05:01 33.81728 -118.53918 9931 ft 250 kts 202°
2026-05-07 05:01 33.80133 -118.54715 10728 ft 254 kts 202°
2026-05-07 05:01 33.78439 -118.55561 11089 ft 283 kts 202°
2026-05-07 05:02 33.76482 -118.56535 11082 ft 325 kts 202°
2026-05-07 05:02 33.74260 -118.57639 11079 ft 366 kts 202°
2026-05-07 05:02 33.71785 -118.58866 11074 ft 404 kts 202°
2026-05-07 05:02 33.69068 -118.60209 11058 ft 440 kts 202°
2026-05-07 05:03 33.66074 -118.61437 11040 ft 470 kts 192°
2026-05-07 05:03 33.62753 -118.61625 11050 ft 473 kts 172°
2026-05-07 05:03 33.59796 -118.60575 11024 ft 422 kts 150°
2026-05-07 05:03 33.57587 -118.58509 11029 ft 389 kts 128°
2026-05-07 05:04 33.56076 -118.55962 11036 ft 363 kts 118°
2026-05-07 05:04 33.54922 -118.53372 11034 ft 343 kts 113°
2026-05-07 05:04 33.53879 -118.50875 11038 ft 328 kts 113°
2026-05-07 05:04 33.52874 -118.48484 11040 ft 314 kts 113°
2026-05-07 05:05 33.51908 -118.46195 11042 ft 303 kts 113°
2026-05-07 05:05 33.50971 -118.43983 11044 ft 292 kts 113°
2026-05-07 05:05 33.50062 -118.41847 11046 ft 283 kts 113°
2026-05-07 05:05 33.49177 -118.39777 11047 ft 275 kts 113°
2026-05-07 05:06 33.48316 -118.37766 11046 ft 268 kts 113°
2026-05-07 05:06 33.47477 -118.35811 11042 ft 261 kts 113°
2026-05-07 05:06 33.46663 -118.33900 11047 ft 254 kts 112°
2026-05-07 05:06 33.45880 -118.32029 11046 ft 248 kts 112°
2026-05-07 05:07 33.45114 -118.30206 11045 ft 242 kts 112°
2026-05-07 05:07 33.44365 -118.28427 11043 ft 237 kts 112°
2026-05-07 05:07 33.43631 -118.26688 11041 ft 231 kts 112°
2026-05-07 05:07 33.42913 -118.24995 11043 ft 226 kts 112°
2026-05-07 05:08 33.42211 -118.23342 11036 ft 220 kts 112°
2026-05-07 05:08 33.41525 -118.21733 11033 ft 214 kts 112°
2026-05-07 05:08 33.40856 -118.20171 11029 ft 208 kts 112°
2026-05-07 05:08 33.40213 -118.18677 11022 ft 201 kts 112°
2026-05-07 05:09 33.39587 -118.17215 10994 ft 194 kts 111°
2026-05-07 05:09 33.38989 -118.15781 10905 ft 191 kts 111°
2026-05-07 05:09 33.38440 -118.14465 10792 ft 189 kts 111°
2026-05-07 05:09 33.37857 -118.13066 10668 ft 187 kts 111°
2026-05-07 05:10 33.37278 -118.11678 10515 ft 186 kts 111°
2026-05-07 05:10 33.36697 -118.10303 10378 ft 185 kts 112°
2026-05-07 05:10 33.36091 -118.08887 10319 ft 205 kts 112°
2026-05-07 05:10 33.35424 -118.07289 10756 ft 220 kts 111°
2026-05-07 05:11 33.34732 -118.05636 11477 ft 225 kts 111°
2026-05-07 05:11 33.33998 -118.03893 11939 ft 245 kts 112°
2026-05-07 05:11 33.33201 -118.01977 12251 ft 274 kts 112°
2026-05-07 05:11 33.32262 -117.99768 12034 ft 323 kts 113°
2026-05-07 05:12 33.31168 -117.97201 11777 ft 370 kts 114°
2026-05-07 05:12 33.30361 -117.95319 11588 ft 399 kts 114°
2026-05-07 05:12 33.29017 -117.92162 11280 ft 441 kts 115°
2026-05-07 05:12 33.27551 -117.88948 11046 ft 436 kts 119°
2026-05-07 05:13 33.25796 -117.86027 11041 ft 436 kts 126°
2026-05-07 05:13 33.23798 -117.83283 11041 ft 439 kts 130°
2026-05-07 05:13 33.21745 -117.80618 11041 ft 433 kts 130°
2026-05-07 05:13 33.19733 -117.77998 11036 ft 425 kts 129°
2026-05-07 05:14 33.17772 -117.75384 11031 ft 420 kts 129°
2026-05-07 05:14 33.15834 -117.72797 11028 ft 416 kts 129°
2026-05-07 05:14 33.13909 -117.70227 11022 ft 414 kts 129°
2026-05-07 05:14 33.11993 -117.67668 11022 ft 413 kts 129°
2026-05-07 05:15 33.10056 -117.65139 11024 ft 414 kts 130°
2026-05-07 05:15 33.08106 -117.62612 11021 ft 414 kts 130°
2026-05-07 05:15 33.06156 -117.60083 11022 ft 415 kts 130°
2026-05-07 05:15 33.04204 -117.57551 11019 ft 415 kts 130°
2026-05-07 05:16 33.02255 -117.55021 10939 ft 407 kts 130°
2026-05-07 05:16 33.00399 -117.52595 10746 ft 387 kts 129°
2026-05-07 05:16 32.98629 -117.50290 10398 ft 370 kts 129°
2026-05-07 05:16 32.96917 -117.48067 9980 ft 358 kts 129°
2026-05-07 05:17 32.95255 -117.45913 9512 ft 349 kts 129°
2026-05-07 05:17 32.93629 -117.43806 9043 ft 341 kts 129°
2026-05-07 05:17 32.92046 -117.41745 8580 ft 333 kts 129°
2026-05-07 05:17 32.90508 -117.39733 8013 ft 323 kts 129°
2026-05-07 05:18 32.89028 -117.37792 7408 ft 309 kts 130°
2026-05-07 05:18 32.87611 -117.35950 6808 ft 294 kts 130°
2026-05-07 05:18 32.86255 -117.34191 6193 ft 284 kts 130°
2026-05-07 05:18 32.84942 -117.32491 5642 ft 273 kts 130°
2026-05-07 05:19 32.83684 -117.30853 5142 ft 264 kts 129°
2026-05-07 05:19 32.82785 -117.29087 5030 ft 235 kts 107°
2026-05-07 05:19 32.82372 -117.27320 5022 ft 211 kts 101°
2026-05-07 05:19 32.82032 -117.25688 4994 ft 197 kts 101°
2026-05-07 05:20 32.81702 -117.24121 4743 ft 199 kts 101°
2026-05-07 05:20 32.81348 -117.22490 4537 ft 205 kts 102°
2026-05-07 05:20 32.80945 -117.20890 4576 ft 200 kts 104°
2026-05-07 05:20 32.80516 -117.19302 4416 ft 204 kts 107°
2026-05-07 05:21 32.80014 -117.17730 4277 ft 205 kts 108°
2026-05-07 05:21 32.79091 -117.14717 4032 ft 191 kts 107°
2026-05-07 05:21 32.78606 -117.13115 3822 ft 212 kts 107°
2026-05-07 05:22 32.78079 -117.11433 3957 ft 222 kts 108°
2026-05-07 05:22 32.77549 -117.09702 3997 ft 224 kts 108°
2026-05-07 05:22 32.76983 -117.07944 3837 ft 229 kts 109°
2026-05-07 05:22 32.76438 -117.06206 3866 ft 220 kts 109°
2026-05-07 05:23 32.75729 -117.04612 3704 ft 221 kts 124°
2026-05-07 05:23 32.74606 -117.03379 3406 ft 218 kts 148°
2026-05-07 05:23 32.73223 -117.02778 3240 ft 209 kts 172°
2026-05-07 05:23 32.71872 -117.03129 3052 ft 196 kts 216°
2026-05-07 05:24 32.71039 -117.04343 2552 ft 188 kts 253°
2026-05-07 05:24 32.70846 -117.05811 2164 ft 171 kts 267°
2026-05-07 05:24 32.70841 -117.07184 1810 ft 163 kts 275°
2026-05-07 05:24 32.70982 -117.08536 1566 ft 176 kts 279°
2026-05-07 05:25 32.71223 -117.09996 1781 ft 172 kts 282°
2026-05-07 05:25 32.71486 -117.11287 1631 ft 152 kts 285°
2026-05-07 05:25 32.71747 -117.12466 1410 ft 144 kts 284°
2026-05-07 05:25 32.72023 -117.13570 1191 ft 136 kts 287°
2026-05-07 05:26 32.72318 -117.14639 868 ft 138 kts 288°
2026-05-07 05:26 32.72577 -117.15714 658 ft 131 kts 284°
2026-05-07 05:26 32.72818 -117.16725 352 ft 128 kts 292°
2026-05-07 05:26 32.73084 -117.17808 118 ft 138 kts 285°
2026-05-07 05:27 32.73325 -117.18824 30 ft 115 kts 285°
2026-05-07 05:27 32.73506 -117.19586 27 ft 68 kts 286°
2026-05-07 05:27 32.73606 -117.19998 27 ft 32 kts 286°
2026-05-07 05:27 32.73637 -117.20175 26 ft 13 kts 245°
2026-05-07 05:28 32.73562 -117.20227 27 ft 14 kts 193°
2026-05-07 05:28 32.73488 -117.20249 26 ft 9 kts 194°
2026-05-07 05:28 32.73448 -117.20261 26 ft 0 kts 194°
2026-05-07 05:28 32.73447 -117.20261 26 ft 2 kts 194°
2026-05-07 05:29 32.73431 -117.20273 26 ft 3 kts 242°
2026-05-07 05:29 32.73423 -117.20304 26 ft 5 kts 257°
2026-05-07 05:29 32.73420 -117.20324 26 ft 0 kts 261°
2026-05-07 05:29 32.73419 -117.20326 26 ft 1 kts 261°
2026-05-07 05:30 32.73419 -117.20330 26 ft 0 kts 261°